Data supplied by UK-AIR on 1/5/2024
All Data GMT hour ending 
Status: R =Ratified P=Provisional,P*=As supplied
,,Cambridge Roadside,,,,,,,,,,,,,,,,,,,,,,,
Date,time,"Nitric oxide",status,unit,"Nitrogen dioxide",status,unit,"Nitrogen oxides as nitrogen dioxide",status,unit
 
01-01-2024,01:00,6.13635,P,ugm-3,8.56809,P,ugm-3,17.97703,P,ugm-3
01-01-2024,02:00,6.01196,P,ugm-3,7.36130,P,ugm-3,16.57952,P,ugm-3
01-01-2024,03:00,5.01688,P,ugm-3,5.52036,P,ugm-3,13.21280,P,ugm-3
01-01-2024,04:00,4.66445,P,ugm-3,5.99721,P,ugm-3,13.14927,P,ugm-3
01-01-2024,05:00,5.50405,P,ugm-3,8.09244,P,ugm-3,16.53188,P,ugm-3
01-01-2024,06:00,4.13582,P,ugm-3,6.66485,P,ugm-3,13.00635,P,ugm-3
01-01-2024,07:00,4.50897,P,ugm-3,8.66537,P,ugm-3,15.57903,P,ugm-3
01-01-2024,08:00,3.70047,P,ugm-3,8.71400,P,ugm-3,14.38797,P,ugm-3
01-01-2024,09:00,4.29130,P,ugm-3,7.95100,P,ugm-3,14.53090,P,ugm-3
01-01-2024,10:00,3.54499,P,ugm-3,6.37972,P,ugm-3,11.81529,P,ugm-3
01-01-2024,11:00,3.54499,P,ugm-3,6.61793,P,ugm-3,12.05350,P,ugm-3
01-01-2024,12:00,3.76266,P,ugm-3,7.90401,P,ugm-3,13.67334,P,ugm-3
01-01-2024,13:00,4.57116,P,ugm-3,9.33229,P,ugm-3,16.34131,P,ugm-3
01-01-2024,14:00,4.41568,P,ugm-3,10.33296,P,ugm-3,17.10358,P,ugm-3
01-01-2024,15:00,5.09980,P,ugm-3,11.61847,P,ugm-3,19.43806,P,ugm-3
01-01-2024,16:00,6.15708,P,ugm-3,10.75961,P,ugm-3,20.20033,P,ugm-3
01-01-2024,17:00,5.13090,P,ugm-3,15.62038,P,ugm-3,23.48765,P,ugm-3
01-01-2024,18:00,6.53023,P,ugm-3,21.19282,P,ugm-3,31.20570,P,ugm-3
01-01-2024,19:00,3.88705,P,ugm-3,13.76386,P,ugm-3,19.72391,P,ugm-3
01-01-2024,20:00,3.98033,P,ugm-3,10.80992,P,ugm-3,16.91301,P,ugm-3
01-01-2024,21:00,3.48279,P,ugm-3,8.52370,P,ugm-3,13.86391,P,ugm-3
01-01-2024,22:00,3.17183,P,ugm-3,6.33254,P,ugm-3,11.19594,P,ugm-3
01-01-2024,23:00,3.20292,P,ugm-3,5.52258,P,ugm-3,10.43366,P,ugm-3
01-01-2024,24:00,4.60226,P,ugm-3,5.58439,P,ugm-3,12.64109,P,ugm-3
02-01-2024,01:00,3.11196,P,ugm-3,4.63575,P,ugm-3,9.40735,P,ugm-3
02-01-2024,02:00,3.15346,P,ugm-3,3.17373,P,ugm-3,8.00896,P,ugm-3
02-01-2024,03:00,2.95636,P,ugm-3,2.52249,P,ugm-3,7.05552,P,ugm-3
02-01-2024,04:00,3.20532,P,ugm-3,2.76050,P,ugm-3,7.67526,P,ugm-3
02-01-2024,05:00,3.67212,P,ugm-3,4.85743,P,ugm-3,10.48793,P,ugm-3
02-01-2024,06:00,4.79242,P,ugm-3,7.47784,P,ugm-3,14.82612,P,ugm-3
02-01-2024,07:00,8.83797,P,ugm-3,17.05431,P,ugm-3,30.60568,P,ugm-3
02-01-2024,08:00,14.84406,P,ugm-3,18.85743,P,ugm-3,41.61801,P,ugm-3
02-01-2024,09:00,20.19664,P,ugm-3,22.47302,P,ugm-3,53.44076,P,ugm-3
02-01-2024,10:00,23.93099,P,ugm-3,34.05217,P,ugm-3,70.74584,P,ugm-3
02-01-2024,11:00,20.57007,P,ugm-3,32.72206,P,ugm-3,64.26240,P,ugm-3
02-01-2024,12:00,16.68012,P,ugm-3,23.24072,P,ugm-3,48.81654,P,ugm-3
02-01-2024,13:00,23.89987,P,ugm-3,32.24067,P,ugm-3,68.88662,P,ugm-3
02-01-2024,14:00,11.45202,P,ugm-3,23.72478,P,ugm-3,41.28430,P,ugm-3
02-01-2024,15:00,14.50175,P,ugm-3,20.81248,P,ugm-3,43.04818,P,ugm-3
02-01-2024,16:00,17.98714,P,ugm-3,18.80535,P,ugm-3,46.38525,P,ugm-3
02-01-2024,17:00,11.70098,P,ugm-3,13.80857,P,ugm-3,31.74982,P,ugm-3
02-01-2024,18:00,6.00609,P,ugm-3,12.57708,P,ugm-3,21.78629,P,ugm-3
02-01-2024,19:00,5.66377,P,ugm-3,11.76713,P,ugm-3,20.45146,P,ugm-3
02-01-2024,20:00,4.76130,P,ugm-3,9.00340,P,ugm-3,16.30396,P,ugm-3
02-01-2024,21:00,6.72184,P,ugm-3,12.38539,P,ugm-3,22.69206,P,ugm-3
02-01-2024,22:00,6.90856,P,ugm-3,12.95720,P,ugm-3,23.55017,P,ugm-3
02-01-2024,23:00,4.48123,P,ugm-3,7.38293,P,ugm-3,14.25405,P,ugm-3
02-01-2024,24:00,4.26339,P,ugm-3,7.38324,P,ugm-3,13.92034,P,ugm-3
03-01-2024,01:00,2.90667,P,ugm-3,4.00241,P,ugm-3,8.45925,P,ugm-3
03-01-2024,02:00,3.11429,P,ugm-3,3.93848,P,ugm-3,8.71366,P,ugm-3
03-01-2024,03:00,2.92743,P,ugm-3,3.23914,P,ugm-3,7.72781,P,ugm-3
03-01-2024,04:00,3.05200,P,ugm-3,3.14354,P,ugm-3,7.82321,P,ugm-3
03-01-2024,05:00,3.70600,P,ugm-3,5.33682,P,ugm-3,11.01928,P,ugm-3
03-01-2024,06:00,4.54686,P,ugm-3,6.81427,P,ugm-3,13.78603,P,ugm-3
03-01-2024,07:00,7.69229,P,ugm-3,13.29683,P,ugm-3,25.09152,P,ugm-3
03-01-2024,08:00,14.13887,P,ugm-3,20.10810,P,ugm-3,41.78740,P,ugm-3
03-01-2024,09:00,14.17002,P,ugm-3,22.97020,P,ugm-3,44.69725,P,ugm-3
03-01-2024,10:00,18.18745,P,ugm-3,21.65998,P,ugm-3,49.54701,P,ugm-3
03-01-2024,11:00,18.47812,P,ugm-3,18.54295,P,ugm-3,46.87567,P,ugm-3
03-01-2024,12:00,15.41573,P,ugm-3,21.87107,P,ugm-3,45.50820,P,ugm-3
03-01-2024,13:00,51.26120,P,ugm-3,33.16758,P,ugm-3,111.76698,P,ugm-3
03-01-2024,14:00,58.29949,P,ugm-3,44.22343,P,ugm-3,133.61473,P,ugm-3
03-01-2024,15:00,95.73324,P,ugm-3,56.42377,P,ugm-3,203.21269,P,ugm-3
03-01-2024,16:00,122.36041,P,ugm-3,66.20837,P,ugm-3,253.82506,P,ugm-3
03-01-2024,17:00,49.82862,P,ugm-3,43.85520,P,ugm-3,120.25803,P,ugm-3
03-01-2024,18:00,37.96318,P,ugm-3,43.34924,P,ugm-3,101.55864,P,ugm-3
03-01-2024,19:00,33.60318,P,ugm-3,28.28215,P,ugm-3,79.80630,P,ugm-3
03-01-2024,20:00,10.15258,P,ugm-3,16.96604,P,ugm-3,32.53311,P,ugm-3
03-01-2024,21:00,9.96573,P,ugm-3,20.83024,P,ugm-3,36.11080,P,ugm-3
03-01-2024,22:00,12.89316,P,ugm-3,27.93328,P,ugm-3,47.70251,P,ugm-3
03-01-2024,23:00,9.09372,P,ugm-3,21.69026,P,ugm-3,35.63378,P,ugm-3
03-01-2024,24:00,5.79258,P,ugm-3,11.01012,P,ugm-3,19.89195,P,ugm-3
04-01-2024,01:00,6.48256,P,ugm-3,8.38954,P,ugm-3,18.32933,P,ugm-3
04-01-2024,02:00,3.86460,P,ugm-3,6.67577,P,ugm-3,12.60141,P,ugm-3
04-01-2024,03:00,3.64644,P,ugm-3,6.38976,P,ugm-3,11.98089,P,ugm-3
04-01-2024,04:00,3.86460,P,ugm-3,7.29629,P,ugm-3,13.22194,P,ugm-3
04-01-2024,05:00,,,,,,,,,
04-01-2024,06:00,6.04623,P,ugm-3,10.25188,P,ugm-3,19.52264,P,ugm-3
04-01-2024,07:00,14.95976,P,ugm-3,24.36505,P,ugm-3,47.30303,P,ugm-3
04-01-2024,08:00,18.79319,P,ugm-3,31.04088,P,ugm-3,59.85670,P,ugm-3
04-01-2024,09:00,22.75130,P,ugm-3,26.78571,P,ugm-3,61.67054,P,ugm-3
04-01-2024,10:00,25.05759,P,ugm-3,28.26136,P,ugm-3,66.68247,P,ugm-3
04-01-2024,11:00,37.30589,P,ugm-3,35.44745,P,ugm-3,92.64901,P,ugm-3
04-01-2024,12:00,26.80290,P,ugm-3,33.60435,P,ugm-3,74.70155,P,ugm-3
04-01-2024,13:00,,,,,,,,,
04-01-2024,14:00,46.87390,P,ugm-3,39.44015,P,ugm-3,111.31247,P,ugm-3
04-01-2024,15:00,68.78371,P,ugm-3,51.19157,P,ugm-3,156.65846,P,ugm-3
04-01-2024,16:00,42.97813,P,ugm-3,44.31574,P,ugm-3,110.21462,P,ugm-3
04-01-2024,17:00,19.85284,P,ugm-3,38.00798,P,ugm-3,68.44858,P,ugm-3
04-01-2024,18:00,12.74696,P,ugm-3,33.15175,P,ugm-3,52.69681,P,ugm-3
04-01-2024,19:00,11.00165,P,ugm-3,26.18585,P,ugm-3,43.05482,P,ugm-3
04-01-2024,20:00,6.60723,P,ugm-3,17.45852,P,ugm-3,27.58945,P,ugm-3
04-01-2024,21:00,4.30093,P,ugm-3,11.73466,P,ugm-3,18.32933,P,ugm-3
04-01-2024,22:00,3.83344,P,ugm-3,10.78083,P,ugm-3,16.65868,P,ugm-3
04-01-2024,23:00,3.55294,P,ugm-3,8.72882,P,ugm-3,14.17659,P,ugm-3
04-01-2024,24:00,4.61259,P,ugm-3,8.01097,P,ugm-3,15.08351,P,ugm-3
05-01-2024,01:00,3.53480,P,ugm-3,5.91573,P,ugm-3,11.33569,P,ugm-3
05-01-2024,02:00,,,,,,,,,
05-01-2024,03:00,2.15207,P,ugm-3,3.62580,P,ugm-3,6.92560,P,ugm-3
05-01-2024,04:00,2.41198,P,ugm-3,4.45318,P,ugm-3,8.15151,P,ugm-3
05-01-2024,05:00,2.49515,P,ugm-3,5.15354,P,ugm-3,8.97939,P,ugm-3
05-01-2024,06:00,4.58485,P,ugm-3,11.02431,P,ugm-3,18.05431,P,ugm-3
05-01-2024,07:00,11.19700,P,ugm-3,19.60880,P,ugm-3,36.77730,P,ugm-3
05-01-2024,08:00,19.43101,P,ugm-3,27.23489,P,ugm-3,57.02870,P,ugm-3
05-01-2024,09:00,21.36476,P,ugm-3,28.56851,P,ugm-3,61.32734,P,ugm-3
05-01-2024,10:00,28.85022,P,ugm-3,30.32123,P,ugm-3,74.55762,P,ugm-3
05-01-2024,11:00,30.93991,P,ugm-3,25.73197,P,ugm-3,73.17250,P,ugm-3
05-01-2024,12:00,31.28299,P,ugm-3,27.11642,P,ugm-3,75.08301,P,ugm-3
05-01-2024,13:00,23.11136,P,ugm-3,25.07844,P,ugm-3,60.51538,P,ugm-3
05-01-2024,14:00,29.03736,P,ugm-3,25.73565,P,ugm-3,70.25897,P,ugm-3
05-01-2024,15:00,17.52846,P,ugm-3,20.50403,P,ugm-3,47.38063,P,ugm-3
05-01-2024,16:00,22.37321,P,ugm-3,26.70381,P,ugm-3,61.00892,P,ugm-3
05-01-2024,17:00,25.07630,P,ugm-3,32.28681,P,ugm-3,70.73660,P,ugm-3
05-01-2024,18:00,16.15612,P,ugm-3,24.61428,P,ugm-3,49.38666,P,ugm-3
05-01-2024,19:00,16.99824,P,ugm-3,26.18882,P,ugm-3,52.25242,P,ugm-3
05-01-2024,20:00,30.16017,P,ugm-3,32.85012,P,ugm-3,79.09508,P,ugm-3
05-01-2024,21:00,22.64352,P,ugm-3,25.89132,P,ugm-3,60.61090,P,ugm-3
05-01-2024,22:00,21.17762,P,ugm-3,27.94795,P,ugm-3,60.41985,P,ugm-3
05-01-2024,23:00,23.48564,P,ugm-3,28.37335,P,ugm-3,64.38416,P,ugm-3
05-01-2024,24:00,16.77991,P,ugm-3,29.29382,P,ugm-3,55.02266,P,ugm-3
06-01-2024,01:00,23.55518,P,ugm-3,26.65049,P,ugm-3,62.76793,P,ugm-3
06-01-2024,02:00,,,,,,,,,
06-01-2024,03:00,4.83797,P,ugm-3,12.27254,P,ugm-3,19.69065,P,ugm-3
06-01-2024,04:00,5.96163,P,ugm-3,13.17823,P,ugm-3,22.31925,P,ugm-3
06-01-2024,05:00,4.15129,P,ugm-3,10.41007,P,ugm-3,16.77529,P,ugm-3
06-01-2024,06:00,4.61948,P,ugm-3,10.74363,P,ugm-3,17.82673,P,ugm-3
06-01-2024,07:00,12.32901,P,ugm-3,19.42563,P,ugm-3,38.32986,P,ugm-3
06-01-2024,08:00,18.85247,P,ugm-3,25.00361,P,ugm-3,53.91032,P,ugm-3
06-01-2024,09:00,24.12741,P,ugm-3,26.95197,P,ugm-3,63.94682,P,ugm-3
06-01-2024,10:00,19.26864,P,ugm-3,22.13516,P,ugm-3,51.67999,P,ugm-3
06-01-2024,11:00,20.03855,P,ugm-3,23.99745,P,ugm-3,54.72280,P,ugm-3
06-01-2024,12:00,26.28109,P,ugm-3,25.70480,P,ugm-3,66.00191,P,ugm-3
06-01-2024,13:00,17.41668,P,ugm-3,21.99569,P,ugm-3,48.70090,P,ugm-3
06-01-2024,14:00,13.76480,P,ugm-3,19.47039,P,ugm-3,40.57612,P,ugm-3
06-01-2024,15:00,17.97851,P,ugm-3,27.34730,P,ugm-3,54.91397,P,ugm-3
06-01-2024,16:00,22.41071,P,ugm-3,25.28285,P,ugm-3,59.64546,P,ugm-3
06-01-2024,17:00,28.46598,P,ugm-3,31.67429,P,ugm-3,75.32151,P,ugm-3
06-01-2024,18:00,23.69043,P,ugm-3,28.86460,P,ugm-3,65.18943,P,ugm-3
06-01-2024,19:00,20.72523,P,ugm-3,32.71023,P,ugm-3,64.48847,P,ugm-3
06-01-2024,20:00,15.35665,P,ugm-3,27.11388,P,ugm-3,50.66041,P,ugm-3
06-01-2024,21:00,7.86560,P,ugm-3,15.89839,P,ugm-3,27.95881,P,ugm-3
06-01-2024,22:00,4.55705,P,ugm-3,12.84664,P,ugm-3,19.83403,P,ugm-3
06-01-2024,23:00,13.85844,P,ugm-3,24.29727,P,ugm-3,45.54657,P,ugm-3
06-01-2024,24:00,5.86799,P,ugm-3,16.18937,P,ugm-3,25.18683,P,ugm-3
07-01-2024,01:00,,,,,,,,,
07-01-2024,02:00,3.12360,P,ugm-3,9.04732,P,ugm-3,13.83677,P,ugm-3
07-01-2024,03:00,3.24854,P,ugm-3,9.84409,P,ugm-3,14.82511,P,ugm-3
07-01-2024,04:00,6.02854,P,ugm-3,10.12466,P,ugm-3,19.36829,P,ugm-3
07-01-2024,05:00,2.12405,P,ugm-3,4.77743,P,ugm-3,8.03426,P,ugm-3
07-01-2024,06:00,2.03034,P,ugm-3,4.72982,P,ugm-3,7.84296,P,ugm-3
07-01-2024,07:00,2.31146,P,ugm-3,6.11605,P,ugm-3,9.66023,P,ugm-3
07-01-2024,08:00,1.90539,P,ugm-3,6.54738,P,ugm-3,9.46894,P,ugm-3
07-01-2024,09:00,3.65461,P,ugm-3,8.93452,P,ugm-3,14.53818,P,ugm-3
07-01-2024,10:00,3.49843,P,ugm-3,9.60440,P,ugm-3,14.96858,P,ugm-3
07-01-2024,11:00,3.02989,P,ugm-3,8.69684,P,ugm-3,13.34260,P,ugm-3
07-01-2024,12:00,3.59214,P,ugm-3,8.21732,P,ugm-3,13.72518,P,ugm-3
07-01-2024,13:00,3.18607,P,ugm-3,6.92703,P,ugm-3,11.81227,P,ugm-3
07-01-2024,14:00,6.34090,P,ugm-3,9.35878,P,ugm-3,19.08136,P,ugm-3
07-01-2024,15:00,4.59169,P,ugm-3,11.51481,P,ugm-3,18.55530,P,ugm-3
07-01-2024,16:00,4.37304,P,ugm-3,12.23266,P,ugm-3,18.93789,P,ugm-3
07-01-2024,17:00,4.18562,P,ugm-3,11.80268,P,ugm-3,18.22054,P,ugm-3
07-01-2024,18:00,3.59214,P,ugm-3,12.28227,P,ugm-3,17.79014,P,ugm-3
07-01-2024,19:00,6.27843,P,ugm-3,16.86712,P,ugm-3,26.49391,P,ugm-3
07-01-2024,20:00,4.27933,P,ugm-3,15.15008,P,ugm-3,21.71162,P,ugm-3
07-01-2024,21:00,4.81034,P,ugm-3,11.70561,P,ugm-3,19.08136,P,ugm-3
07-01-2024,22:00,3.62337,P,ugm-3,10.17799,P,ugm-3,15.73375,P,ugm-3
07-01-2024,23:00,3.37348,P,ugm-3,8.60041,P,ugm-3,13.77301,P,ugm-3
07-01-2024,24:00,3.99820,P,ugm-3,9.50761,P,ugm-3,15.63810,P,ugm-3
08-01-2024,01:00,2.45906,P,ugm-3,7.58662,P,ugm-3,11.35713,P,ugm-3
08-01-2024,02:00,1.66716,P,ugm-3,7.14194,P,ugm-3,9.69822,P,ugm-3
08-01-2024,03:00,1.53170,P,ugm-3,5.16435,P,ugm-3,7.51293,P,ugm-3
08-01-2024,04:00,1.83388,P,ugm-3,4.27035,P,ugm-3,7.08225,P,ugm-3
08-01-2024,05:00,1.46918,P,ugm-3,4.59027,P,ugm-3,6.84299,P,ugm-3
08-01-2024,06:00,1.71926,P,ugm-3,5.54672,P,ugm-3,8.18287,P,ugm-3
08-01-2024,07:00,4.62637,P,ugm-3,10.56412,P,ugm-3,17.65778,P,ugm-3
08-01-2024,08:00,6.46024,P,ugm-3,17.14736,P,ugm-3,27.05293,P,ugm-3
08-01-2024,09:00,7.37718,P,ugm-3,19.17088,P,ugm-3,30.48240,P,ugm-3
08-01-2024,10:00,8.84636,P,ugm-3,17.25314,P,ugm-3,30.81737,P,ugm-3
08-01-2024,11:00,8.00236,P,ugm-3,16.10674,P,ugm-3,28.37686,P,ugm-3
08-01-2024,12:00,8.00236,P,ugm-3,14.76686,P,ugm-3,27.03698,P,ugm-3
08-01-2024,13:00,6.68947,P,ugm-3,11.42038,P,ugm-3,21.67743,P,ugm-3
08-01-2024,14:00,9.37777,P,ugm-3,17.39538,P,ugm-3,31.77443,P,ugm-3
08-01-2024,15:00,7.65851,P,ugm-3,15.72477,P,ugm-3,27.46765,P,ugm-3
08-01-2024,16:00,6.90829,P,ugm-3,14.91312,P,ugm-3,25.50568,P,ugm-3
08-01-2024,17:00,8.00236,P,ugm-3,13.61839,P,ugm-3,25.88850,P,ugm-3
08-01-2024,18:00,8.65881,P,ugm-3,17.25360,P,ugm-3,30.53025,P,ugm-3
08-01-2024,19:00,4.45965,P,ugm-3,11.85656,P,ugm-3,18.69459,P,ugm-3
08-01-2024,20:00,4.00118,P,ugm-3,13.19758,P,ugm-3,19.33263,P,ugm-3
08-01-2024,21:00,3.09466,P,ugm-3,10.18507,P,ugm-3,14.93015,P,ugm-3
08-01-2024,22:00,2.68829,P,ugm-3,8.17624,P,ugm-3,12.29824,P,ugm-3
08-01-2024,23:00,3.08424,P,ugm-3,8.41453,P,ugm-3,13.14364,P,ugm-3
08-01-2024,24:00,2.12563,P,ugm-3,5.92854,P,ugm-3,9.18779,P,ugm-3
09-01-2024,01:00,1.66840,P,ugm-3,4.65622,P,ugm-3,7.21440,P,ugm-3
09-01-2024,02:00,1.41814,P,ugm-3,5.23148,P,ugm-3,7.40593,P,ugm-3
09-01-2024,03:00,1.33472,P,ugm-3,4.91248,P,ugm-3,6.95902,P,ugm-3
09-01-2024,04:00,1.34515,P,ugm-3,4.73688,P,ugm-3,6.79941,P,ugm-3
09-01-2024,05:00,1.43900,P,ugm-3,5.07181,P,ugm-3,7.27824,P,ugm-3
09-01-2024,06:00,4.03544,P,ugm-3,8.17736,P,ugm-3,14.36495,P,ugm-3
09-01-2024,07:00,5.09905,P,ugm-3,17.55965,P,ugm-3,25.37808,P,ugm-3
09-01-2024,08:00,11.66837,P,ugm-3,26.44856,P,ugm-3,44.33981,P,ugm-3
09-01-2024,09:00,9.35347,P,ugm-3,32.20065,P,ugm-3,46.54243,P,ugm-3
09-01-2024,10:00,10.34408,P,ugm-3,21.16895,P,ugm-3,37.02965,P,ugm-3
09-01-2024,11:00,8.00832,P,ugm-3,17.07313,P,ugm-3,29.35238,P,ugm-3
09-01-2024,12:00,5.22418,P,ugm-3,11.52604,P,ugm-3,19.53633,P,ugm-3
09-01-2024,13:00,6.60061,P,ugm-3,11.76182,P,ugm-3,21.88261,P,ugm-3
09-01-2024,14:00,6.38163,P,ugm-3,11.23568,P,ugm-3,21.02071,P,ugm-3
09-01-2024,15:00,6.06880,P,ugm-3,12.96030,P,ugm-3,22.26567,P,ugm-3
09-01-2024,16:00,7.22626,P,ugm-3,16.97943,P,ugm-3,28.05953,P,ugm-3
09-01-2024,17:00,10.10425,P,ugm-3,26.16539,P,ugm-3,41.65835,P,ugm-3
09-01-2024,18:00,7.63293,P,ugm-3,32.73191,P,ugm-3,44.43557,P,ugm-3
09-01-2024,19:00,8.54012,P,ugm-3,27.03142,P,ugm-3,40.12609,P,ugm-3
09-01-2024,20:00,4.88007,P,ugm-3,20.19380,P,ugm-3,27.67647,P,ugm-3
09-01-2024,21:00,3.59749,P,ugm-3,16.46230,P,ugm-3,21.97837,P,ugm-3
09-01-2024,22:00,4.47340,P,ugm-3,14.68831,P,ugm-3,21.54742,P,ugm-3
09-01-2024,23:00,4.88007,P,ugm-3,13.87322,P,ugm-3,21.35589,P,ugm-3
09-01-2024,24:00,2.69030,P,ugm-3,10.19201,P,ugm-3,14.31707,P,ugm-3
10-01-2024,01:00,2.25402,P,ugm-3,10.47068,P,ugm-3,13.92679,P,ugm-3
10-01-2024,02:00,1.66964,P,ugm-3,7.27811,P,ugm-3,9.83819,P,ugm-3
10-01-2024,03:00,1.65921,P,ugm-3,5.84074,P,ugm-3,8.38482,P,ugm-3
10-01-2024,04:00,1.69051,P,ugm-3,5.79274,P,ugm-3,8.38482,P,ugm-3
10-01-2024,05:00,1.62790,P,ugm-3,6.70327,P,ugm-3,9.19935,P,ugm-3
10-01-2024,06:00,2.31663,P,ugm-3,9.14491,P,ugm-3,12.69702,P,ugm-3
10-01-2024,07:00,4.88370,P,ugm-3,20.01398,P,ugm-3,27.50222,P,ugm-3
10-01-2024,08:00,14.77632,P,ugm-3,35.03087,P,ugm-3,57.68758,P,ugm-3
10-01-2024,09:00,15.62158,P,ugm-3,42.21548,P,ugm-3,66.16823,P,ugm-3
10-01-2024,10:00,14.27543,P,ugm-3,29.04312,P,ugm-3,50.93181,P,ugm-3
10-01-2024,11:00,7.85775,P,ugm-3,16.12463,P,ugm-3,28.17300,P,ugm-3
10-01-2024,12:00,7.51338,P,ugm-3,13.63411,P,ugm-3,25.15447,P,ugm-3
10-01-2024,13:00,7.04380,P,ugm-3,10.61689,P,ugm-3,21.41723,P,ugm-3
10-01-2024,14:00,5.50981,P,ugm-3,10.86078,P,ugm-3,19.30905,P,ugm-3
10-01-2024,15:00,8.01428,P,ugm-3,15.93253,P,ugm-3,28.22092,P,ugm-3
10-01-2024,16:00,8.13950,P,ugm-3,23.26291,P,ugm-3,35.74330,P,ugm-3
10-01-2024,17:00,8.85953,P,ugm-3,25.84820,P,ugm-3,39.43262,P,ugm-3
10-01-2024,18:00,7.73252,P,ugm-3,35.29029,P,ugm-3,47.14666,P,ugm-3
10-01-2024,19:00,6.82466,P,ugm-3,31.41187,P,ugm-3,41.87620,P,ugm-3
10-01-2024,20:00,8.01428,P,ugm-3,32.89383,P,ugm-3,45.18221,P,ugm-3
10-01-2024,21:00,5.69765,P,ugm-3,20.87413,P,ugm-3,29.61040,P,ugm-3
10-01-2024,22:00,6.35507,P,ugm-3,21.63889,P,ugm-3,31.38319,P,ugm-3
10-01-2024,23:00,4.97762,P,ugm-3,21.06781,P,ugm-3,28.70005,P,ugm-3
10-01-2024,24:00,5.88548,P,ugm-3,19.14872,P,ugm-3,28.17300,P,ugm-3
11-01-2024,01:00,3.17468,P,ugm-3,11.43298,P,ugm-3,16.30075,P,ugm-3
11-01-2024,02:00,,,,,,,,,
11-01-2024,03:00,1.72310,P,ugm-3,7.33018,P,ugm-3,9.97222,P,ugm-3
11-01-2024,04:00,1.69177,P,ugm-3,10.30276,P,ugm-3,12.89677,P,ugm-3
11-01-2024,05:00,1.81708,P,ugm-3,12.31601,P,ugm-3,15.10217,P,ugm-3
11-01-2024,06:00,5.76454,P,ugm-3,15.70817,P,ugm-3,24.54701,P,ugm-3
11-01-2024,07:00,6.92372,P,ugm-3,15.56087,P,ugm-3,26.17709,P,ugm-3
11-01-2024,08:00,12.93889,P,ugm-3,29.59027,P,ugm-3,49.42962,P,ugm-3
11-01-2024,09:00,11.02782,P,ugm-3,29.73982,P,ugm-3,46.64891,P,ugm-3
11-01-2024,10:00,12.06168,P,ugm-3,29.97644,P,ugm-3,48.47076,P,ugm-3
11-01-2024,11:00,11.02782,P,ugm-3,28.78095,P,ugm-3,45.69004,P,ugm-3
11-01-2024,12:00,9.17941,P,ugm-3,22.88945,P,ugm-3,36.96435,P,ugm-3
11-01-2024,13:00,10.62054,P,ugm-3,27.67948,P,ugm-3,43.96408,P,ugm-3
11-01-2024,14:00,27.22493,P,ugm-3,38.56085,P,ugm-3,80.30516,P,ugm-3
11-01-2024,15:00,22.71355,P,ugm-3,30.71165,P,ugm-3,65.53860,P,ugm-3
11-01-2024,16:00,15.82116,P,ugm-3,31.83498,P,ugm-3,56.09375,P,ugm-3
11-01-2024,17:00,10.65187,P,ugm-3,26.76846,P,ugm-3,43.10110,P,ugm-3
11-01-2024,18:00,7.11169,P,ugm-3,19.25195,P,ugm-3,30.15639,P,ugm-3
11-01-2024,19:00,7.51897,P,ugm-3,18.29186,P,ugm-3,29.82078,P,ugm-3
11-01-2024,20:00,6.26581,P,ugm-3,17.00114,P,ugm-3,26.60858,P,ugm-3
11-01-2024,21:00,4.10410,P,ugm-3,12.06944,P,ugm-3,18.36231,P,ugm-3
11-01-2024,22:00,6.51644,P,ugm-3,16.47301,P,ugm-3,26.46475,P,ugm-3
11-01-2024,23:00,5.79587,P,ugm-3,14.31772,P,ugm-3,23.20460,P,ugm-3
11-01-2024,24:00,4.79334,P,ugm-3,10.62908,P,ugm-3,17.97877,P,ugm-3
12-01-2024,01:00,2.63359,P,ugm-3,6.13226,P,ugm-3,10.17038,P,ugm-3
12-01-2024,02:00,2.13196,P,ugm-3,4.79059,P,ugm-3,8.05955,P,ugm-3
12-01-2024,03:00,1.78708,P,ugm-3,4.02411,P,ugm-3,6.76426,P,ugm-3
12-01-2024,04:00,2.03790,P,ugm-3,4.35913,P,ugm-3,7.48387,P,ugm-3
12-01-2024,05:00,2.10060,P,ugm-3,4.59880,P,ugm-3,7.81968,P,ugm-3
12-01-2024,06:00,2.72765,P,ugm-3,6.51575,P,ugm-3,10.69809,P,ugm-3
12-01-2024,07:00,5.14178,P,ugm-3,13.70412,P,ugm-3,21.58807,P,ugm-3
12-01-2024,08:00,8.65324,P,ugm-3,22.85593,P,ugm-3,36.12404,P,ugm-3
12-01-2024,09:00,13.20977,P,ugm-3,25.60796,P,ugm-3,45.86266,P,ugm-3
12-01-2024,10:00,13.57555,P,ugm-3,24.23156,P,ugm-3,45.04711,P,ugm-3
12-01-2024,11:00,12.10199,P,ugm-3,21.88553,P,ugm-3,40.44165,P,ugm-3
12-01-2024,12:00,7.36779,P,ugm-3,15.71195,P,ugm-3,27.00908,P,ugm-3
12-01-2024,13:00,8.24566,P,ugm-3,19.06732,P,ugm-3,31.71048,P,ugm-3
12-01-2024,14:00,11.00466,P,ugm-3,19.15452,P,ugm-3,36.02809,P,ugm-3
12-01-2024,15:00,15.51939,P,ugm-3,25.18487,P,ugm-3,48.98093,P,ugm-3
12-01-2024,16:00,7.33644,P,ugm-3,20.41346,P,ugm-3,31.66250,P,ugm-3
12-01-2024,17:00,11.85117,P,ugm-3,26.25191,P,ugm-3,44.42345,P,ugm-3
12-01-2024,18:00,10.91060,P,ugm-3,25.63124,P,ugm-3,42.36059,P,ugm-3
12-01-2024,19:00,11.09871,P,ugm-3,22.80021,P,ugm-3,39.81800,P,ugm-3
12-01-2024,20:00,25.05049,P,ugm-3,27.45739,P,ugm-3,65.86760,P,ugm-3
12-01-2024,21:00,9.57290,P,ugm-3,20.88610,P,ugm-3,35.56435,P,ugm-3
12-01-2024,22:00,12.72903,P,ugm-3,20.73218,P,ugm-3,40.24976,P,ugm-3
12-01-2024,23:00,11.53765,P,ugm-3,20.92785,P,ugm-3,38.61866,P,ugm-3
12-01-2024,24:00,9.46839,P,ugm-3,17.81613,P,ugm-3,32.33413,P,ugm-3
13-01-2024,01:00,5.73127,P,ugm-3,13.35784,P,ugm-3,22.14566,P,ugm-3
13-01-2024,02:00,4.64358,P,ugm-3,11.69735,P,ugm-3,18.81741,P,ugm-3
13-01-2024,03:00,3.95332,P,ugm-3,9.34748,P,ugm-3,15.40915,P,ugm-3
13-01-2024,04:00,4.11020,P,ugm-3,15.58742,P,ugm-3,21.88964,P,ugm-3
13-01-2024,05:00,3.85920,P,ugm-3,21.01267,P,ugm-3,26.93002,P,ugm-3
13-01-2024,06:00,4.58083,P,ugm-3,14.48177,P,ugm-3,21.50561,P,ugm-3
13-01-2024,07:00,17.97820,P,ugm-3,23.70165,P,ugm-3,51.26784,P,ugm-3
13-01-2024,08:00,17.41344,P,ugm-3,25.33566,P,ugm-3,52.03590,P,ugm-3
13-01-2024,09:00,25.32008,P,ugm-3,32.74978,P,ugm-3,71.57336,P,ugm-3
13-01-2024,10:00,28.39489,P,ugm-3,33.12352,P,ugm-3,76.66174,P,ugm-3
13-01-2024,11:00,24.28469,P,ugm-3,28.38491,P,ugm-3,65.62092,P,ugm-3
13-01-2024,12:00,25.60246,P,ugm-3,27.80446,P,ugm-3,67.06103,P,ugm-3
13-01-2024,13:00,27.32812,P,ugm-3,31.06294,P,ugm-3,72.96547,P,ugm-3
13-01-2024,14:00,24.81807,P,ugm-3,33.90354,P,ugm-3,71.95739,P,ugm-3
13-01-2024,15:00,34.07387,P,ugm-3,33.72858,P,ugm-3,85.97444,P,ugm-3
13-01-2024,16:00,59.42532,P,ugm-3,45.30866,P,ugm-3,136.42622,P,ugm-3
13-01-2024,17:00,93.53056,P,ugm-3,50.13897,P,ugm-3,193.55050,P,ugm-3
13-01-2024,18:00,96.60537,P,ugm-3,49.74466,P,ugm-3,197.87083,P,ugm-3
13-01-2024,19:00,46.27896,P,ugm-3,34.07179,P,ugm-3,105.03187,P,ugm-3
13-01-2024,20:00,26.85749,P,ugm-3,24.92005,P,ugm-3,66.10095,P,ugm-3
13-01-2024,21:00,22.02565,P,ugm-3,26.95236,P,ugm-3,60.72455,P,ugm-3
13-01-2024,22:00,18.66846,P,ugm-3,26.05152,P,ugm-3,54.67610,P,ugm-3
13-01-2024,23:00,28.61452,P,ugm-3,29.95455,P,ugm-3,73.82953,P,ugm-3
13-01-2024,24:00,18.66846,P,ugm-3,25.23546,P,ugm-3,53.86004,P,ugm-3
14-01-2024,01:00,22.64903,P,ugm-3,25.47422,P,ugm-3,60.20225,P,ugm-3
14-01-2024,02:00,8.58235,P,ugm-3,22.38553,P,ugm-3,35.54494,P,ugm-3
14-01-2024,03:00,7.00194,P,ugm-3,17.93996,P,ugm-3,28.67612,P,ugm-3
14-01-2024,04:00,7.25313,P,ugm-3,19.09189,P,ugm-3,30.21320,P,ugm-3
14-01-2024,05:00,4.01905,P,ugm-3,16.46142,P,ugm-3,22.62388,P,ugm-3
14-01-2024,06:00,2.70030,P,ugm-3,10.75005,P,ugm-3,14.89045,P,ugm-3
14-01-2024,07:00,3.98765,P,ugm-3,13.77164,P,ugm-3,19.88596,P,ugm-3
14-01-2024,08:00,5.52620,P,ugm-3,23.42100,P,ugm-3,31.89438,P,ugm-3
14-01-2024,09:00,14.66326,P,ugm-3,35.15710,P,ugm-3,57.64045,P,ugm-3
14-01-2024,10:00,12.60140,P,ugm-3,28.83992,P,ugm-3,48.16180,P,ugm-3
14-01-2024,11:00,12.05715,P,ugm-3,23.01375,P,ugm-3,41.50112,P,ugm-3
14-01-2024,12:00,13.06192,P,ugm-3,22.81807,P,ugm-3,42.84607,P,ugm-3
14-01-2024,13:00,9.70224,P,ugm-3,19.08327,P,ugm-3,33.95983,P,ugm-3
14-01-2024,14:00,14.09808,P,ugm-3,21.99785,P,ugm-3,43.61461,P,ugm-3
14-01-2024,15:00,16.23320,P,ugm-3,27.61028,P,ugm-3,52.50084,P,ugm-3
14-01-2024,16:00,15.54242,P,ugm-3,24.44249,P,ugm-3,48.27387,P,ugm-3
14-01-2024,17:00,21.44540,P,ugm-3,32.77958,P,ugm-3,65.66208,P,ugm-3
14-01-2024,18:00,16.73558,P,ugm-3,33.61273,P,ugm-3,59.27359,P,ugm-3
14-01-2024,19:00,26.06103,P,ugm-3,36.46193,P,ugm-3,76.42163,P,ugm-3
14-01-2024,20:00,16.07620,P,ugm-3,31.11730,P,ugm-3,55.76713,P,ugm-3
14-01-2024,21:00,12.62233,P,ugm-3,24.50080,P,ugm-3,43.85477,P,ugm-3
14-01-2024,22:00,13.75269,P,ugm-3,24.73699,P,ugm-3,45.82416,P,ugm-3
14-01-2024,23:00,10.45581,P,ugm-3,21.14607,P,ugm-3,37.17809,P,ugm-3
14-01-2024,24:00,6.78215,P,ugm-3,14.81855,P,ugm-3,25.21770,P,ugm-3
15-01-2024,01:00,5.36271,P,ugm-3,13.56623,P,ugm-3,21.78893,P,ugm-3
15-01-2024,02:00,3.43548,P,ugm-3,12.67616,P,ugm-3,17.94383,P,ugm-3
15-01-2024,03:00,3.33074,P,ugm-3,11.13850,P,ugm-3,16.24557,P,ugm-3
15-01-2024,04:00,2.82799,P,ugm-3,10.80391,P,ugm-3,15.14010,P,ugm-3
15-01-2024,05:00,3.07937,P,ugm-3,10.22622,P,ugm-3,14.94785,P,ugm-3
15-01-2024,06:00,5.78167,P,ugm-3,15.31100,P,ugm-3,24.17610,P,ugm-3
15-01-2024,07:00,14.95692,P,ugm-3,31.81106,P,ugm-3,54.74469,P,ugm-3
15-01-2024,08:00,29.94526,P,ugm-3,37.28303,P,ugm-3,83.19846,P,ugm-3
15-01-2024,09:00,35.60124,P,ugm-3,41.29950,P,ugm-3,95.88731,P,ugm-3
15-01-2024,10:00,39.46616,P,ugm-3,40.80459,P,ugm-3,101.31852,P,ugm-3
15-01-2024,11:00,29.56820,P,ugm-3,38.34183,P,ugm-3,83.67910,P,ugm-3
15-01-2024,12:00,,,,,,,,,
15-01-2024,13:00,,,,,,,,,
15-01-2024,14:00,,,,,,,,,
15-01-2024,15:00,,,,,,,,,
15-01-2024,16:00,19.89019,P,ugm-3,33.37894,P,ugm-3,63.87681,P,ugm-3
15-01-2024,17:00,30.88793,P,ugm-3,47.22876,P,ugm-3,94.58959,P,ugm-3
15-01-2024,18:00,38.33497,P,ugm-3,51.86344,P,ugm-3,110.64290,P,ugm-3
15-01-2024,19:00,38.42923,P,ugm-3,45.75899,P,ugm-3,104.68299,P,ugm-3
15-01-2024,20:00,19.57597,P,ugm-3,44.33865,P,ugm-3,74.35472,P,ugm-3
15-01-2024,21:00,19.76450,P,ugm-3,41.50219,P,ugm-3,71.80734,P,ugm-3
15-01-2024,22:00,20.77001,P,ugm-3,40.15269,P,ugm-3,71.99959,P,ugm-3
15-01-2024,23:00,17.15647,P,ugm-3,38.19542,P,ugm-3,64.50164,P,ugm-3